Hourly Weather Roundup
Issued by NWS Central Illinois

Home | Current Version | Previous Version | Text Only | Print | Product List | Glossary On
Versions: 1 2 3 4 5 6 7 8 9 10 11 12 13 14 15 16 17 18 19 20 21 22 23 24 25 26 27 28 29 30 31 32 33 34 35 36 37 38 39 40 41 42 43 44 45 46 47 48 49 50
000
NZUS43 KILX 180810
HWRILX

Area Weather Roundup
National Weather Service Lincoln IL
200 AM CST MON DEC 18 2017

NOTE:  "FAIR" indicates few or no clouds below 12,000 feet, with
       no sigificant weather and/or obstructions to visibility.


CITY           SKY/WX    TMP DP  RH WIND       PRES   REMARKS
Bloomington    CLOUDY    42  42 100 SW12      30.00S
Champaign      CLOUDY    43  42  97 SW12      30.03R FOG
Danville       DRIZZLE   42  40  96 S12       30.00S WCI  35
Decatur        CLOUDY    44  42  93 SW10      30.03R
Effingham      CLOUDY    44  44 100 S6        30.08R FOG
Flora          CLOUDY    45  44  96 SW6       30.09R FOG
Galesburg      CLOUDY    43  43 100 SW8       29.99R FOG
Jacksonville   CLOUDY    44  42  91 SW8       30.03S
Lacon          DRIZZLE   42  42 100 SW5       29.98R
Lawrenceville  CLOUDY    44  42  93 SW10      30.09R FOG
Litchfield     CLOUDY    44  42  94 S7        30.05S
$$


CITY           SKY/WX    TMP DP  RH WIND       PRES   REMARKS
Lincoln        CLOUDY    46  45  97 SW5       30.01S
Macomb         CLOUDY    45  43  95 W8        30.01R FOG
Mattoon        CLOUDY    43  42  97 SW9       30.04R FOG
Mt Carmel AP   CLOUDY    44  43  97 SW9       30.09R FOG
Olney-Noble AP CLOUDY    43  41  93 S5        30.09R FOG
Paris AP       CLOUDY    42  42  99 S10       30.06R FOG
Peoria         CLOUDY    44  43  96 SW7       29.99S
Pontiac        CLOUDY    43  43  99 SW9       29.99S
Rantoul        CLOUDY    44  43  97 SW9       30.01S FOG
Robinson       CLOUDY    42  42  99 SW9       30.09S FOG
Springfield    CLOUDY    47  43  86 SW9       30.03S
Taylorville    CLOUDY    44  42  92 SW9       30.04R
$$

...REGIONAL REPORTS...


CITY           SKY/WX    TMP DP  RH WIND       PRES   REMARKS
Chicago O`Hare DRIZZLE   42  38  85 SW10      29.93F FOG
Kankakee       CLOUDY    42  39  88 SW10      29.99S
Moline         CLOUDY    43  41  93 W13       29.96R
Mount Sterling CLOUDY    44  42  93 SW9       30.00S
Mount Vernon   CLOUDY    44  43  96 SW7       30.09R FOG
Pittsfield     CLOUDY    46  43  91 SW8       30.04S
Quincy         CLOUDY    45  42  89 SW9       30.01S
Rockford       LGT RAIN  36  36 100 CALM      29.94F VSB 3/4
$$


CITY           SKY/WX    TMP DP  RH WIND       PRES   REMARKS
Burlington     CLOUDY    43  43 100 SW7       29.97S
Cedar Rapids   MOCLDY    33  32  96 SW7       29.93S FOG     WCI  27
Des Moines     PTCLDY    27  24  89 SW5       29.97R FOG     WCI  22
Kirksville     CLOUDY    45  45 100 SW8       30.00S
Ottumwa        FOG       38  38 100 W5        29.96S VSB 1   WCI  34
St Louis       DRIZZLE   48  42  80 W9        30.07R
$$


CITY           SKY/WX    TMP DP  RH WIND       PRES   REMARKS
Terre Haute    CLOUDY    42  40  92 S7        30.07R FOG
Evansville     LGT RAIN  44  44 100 SW8       30.11S FOG
Indianapolis   CLOUDY    41  39  93 SW8       30.06R FOG
Lafayette      CLOUDY    42  39  89 SW7       30.03R
Madison        CLOUDY    32  32 100 S3        29.91F FOG
Milwaukee      LGT RAIN  35  34  96 CALM      29.92F VSB 1
$$






USA.gov is the U.S. government's official web portal to all federal, state and local government web resources and services.